Location: Arrecife
(10.5858°N, 67.0742°W)
Time: 14:04:35
(UTC+00:00)

S3M - Visible Passes

Search period start: 01 July 2022 00:00
Search period end: 11 July 2022 00:00
Orbit: 948 x 1005 km, 83.0° (Epoch: 30 June)

Date Brightness Start Highest point End Pass type
(mag) Time Alt. Az. Time Alt. Az. Time Alt. Az.
01 Jul 5.1 01:06:19 10° SSW 01:12:07 40° W 01:17:52 10° NNW visible
01 Jul 4.5 23:47:01 10° SSE 23:52:41 36° E 23:58:14 10° NNE visible
02 Jul 6.3 01:33:44 10° SW 01:37:50 18° W 01:41:55 10° NW visible
03 Jul 3.9 00:12:01 10° S 00:18:17 79° E 00:24:27 10° N visible
04 Jul 4.8 00:37:57 10° SSW 00:43:56 48° W 00:49:52 10° NNW visible
04 Jul 4.8 23:19:12 10° SSE 23:24:32 30° E 23:29:47 10° NNE visible
05 Jul 6.1 01:05:01 10° SW 01:09:40 22° W 01:14:16 10° NW visible
05 Jul 4.0 23:43:57 10° S 23:50:08 66° E 23:56:13 10° NNE visible
07 Jul 4.6 00:09:40 10° SSW 00:15:47 58° W 00:21:49 10° N visible
08 Jul 6.0 00:36:25 10° SW 00:41:28 26° W 00:46:30 10° NNW visible
08 Jul 4.1 23:15:55 10° SSE 23:21:58 55° E 23:27:57 10° NNE visible
09 Jul 6.9 01:05:41 10° W 01:07:15 11° W 01:08:49 10° WNW visible
09 Jul 4.3 23:41:26 10° S 23:47:37 69° W 23:53:43 10° N visible
